CZ-6A DEB, 64663

Orbit data source: Space-Track

CZ-6A DEB, 64663 is space debris in LEO originally from a launch on Tue, 06 Aug 2024 UTC launched from the Taiyaun Space Center, China (TSC). Debris objects in space refer to the collection of defunct objects orbiting the Earth. Examples of debris include non-operational satellites, rocket bodies, and fragments generated from explosions, collisions, or faulty payload assembly.

Loading next visibility...
Identifier
64663, 2024-140AFD
Orbit
LEO
Country
Flag of CNCN / PRC
Related business
Manufacturer
SAST
Mission
Spacecraft
Bus & Motor
Unknown
Mass
Unknown
Launch date (UTC)
2024-08-06 (2 years ago)
Launch vehicle
Unknown
Launch site
Taiyaun Space Center, China (TSC)
Object type
Payload
Rocket body
Debris
Shape & HBR
Unknown shape, 0.1 m
Radar Cross Section
Medium (>0.1 m² and <1 m²)

Expand to show TLE details & history
Last TLE update: 17 hours ago

TLE from 17 hours ago
0 CZ-6A DEB
1 64663U 24140AFD 26171.27618213  .00004567  00000-0  82253-3 0  9998
2 64663  89.0479 273.4585 0087902 237.9419 121.3237 14.63913854 87748
Epoch: 2026-06-20T06:37Z
TLE epoch observation values (Epoch: 2026-06-20T06:37:42.136Z)
Latitude
-0.00004°
Longitude
-94.4602°
Altitude
716.34 km
Speed
7.48 km/s
True Right ascension
18h 13m 50s
True Declination
0° 00' 00"
Sunlit
Object was in full shadow at epoch
Visualization orbit readout
Latitude
Unknown
Longitude
Unknown
Altitude
Unknown
Speed
Unknown
Apparent Right ascension
Unknown
Apparent Declination
Unknown
Sunlit
N/A
Visualization observer readout
Local Sidereal Time
10:19:48
Azimuth
Unknown
Elevation
Unknown
Doppler factor
Unknown
Orbital elements
Apogee altitude
739.473 km
Perigee altitude
615.433 km
Semi-major axis
7,055.59 km
Eccentricity
0.00879
Inclination
89.0479°
RAAN
273.4585°
Arg. of periapsis
237.9419°
True anomaly
122.17924°
Mean anomaly
121.3237°
Eccentric anomaly
121.75196°
Mean motion
3.66221 °/min
Orbital period
98.3 mins
BSTAR
0.00082253
Loading maneuver chart data...
Computing Atmospheric mass density...
Loading historical data...
Loading historical data...
Loading historical data...
Loading historical data...
Loading historical data...
Loading historical data...
Loading historical data...

Documentation

Showing up to 5 results
|